This is the latest recevied weather packets stored in our database for station/object OK1LPD-6. If no packets are shown the sender has not sent any weather packets the latest 10 day(s).
| Time | Temp. | Humidity | Pressure | Rain* | Wind** | Luminosity | Snow |
|---|---|---|---|---|---|---|---|
| 1777631677 | 20° C | 32% | 1028.4 hPa | 0 mm | - | - | - |
| 1777631077 | 19.44° C | 32% | 1028.6 hPa | 0 mm | - | - | - |
| 1777630490 | 19.44° C | 32% | 1028.6 hPa | 0 mm | - | - | - |
| 1777629878 | 18.89° C | 32% | 1028.7 hPa | 0 mm | - | - | - |
| 1777629278 | 19.44° C | 33% | 1028.9 hPa | 0 mm | - | - | - |
| 1777628693 | 19.44° C | 32% | 1028.9 hPa | 0 mm | - | - | - |
| 1777628077 | 19.44° C | 31% | 1029 hPa | 0 mm | - | - | - |
| 1777627478 | 19.44° C | 32% | 1028.9 hPa | 0 mm | - | - | - |
| 1777626898 | 18.33° C | 32% | 1029.1 hPa | 0 mm | - | - | - |
| 1777626278 | 18.33° C | 33% | 1029.1 hPa | 0 mm | - | - | - |
| 1777625678 | 17.78° C | 34% | 1029.3 hPa | 0 mm | - | - | - |
| 1777625096 | 17.78° C | 34% | 1029.4 hPa | 0 mm | - | - | - |
| 1777624478 | 17.78° C | 32% | 1029.4 hPa | 0 mm | - | - | - |
| 1777623878 | 19.44° C | 31% | 1029.3 hPa | 0 mm | - | - | - |
| 1777623299 | 19.44° C | 32% | 1029.4 hPa | 0 mm | - | - | - |
| 1777622678 | 19.44° C | 31% | 1029.4 hPa | 0 mm | - | - | - |
| 1777622078 | 18.33° C | 32% | 1029.5 hPa | 0 mm | - | - | - |
| 1777621496 | 17.78° C | 33% | 1029.3 hPa | 0 mm | - | - | - |
| 1777620879 | 16.67° C | 38% | 1029.4 hPa | 0 mm | - | - | - |
| 1777620279 | 16.67° C | 40% | 1029.5 hPa | 0 mm | - | - | - |
| 1777619699 | 15.56° C | 41% | 1029.6 hPa | 0 mm | - | - | - |
| 1777619079 | 13.89° C | 43% | 1029.4 hPa | 0 mm | - | - | - |
| 1777618479 | 13.33° C | 43% | 1029.5 hPa | 0 mm | - | - | - |
| 1777617897 | 12.22° C | 45% | 1029.6 hPa | 0 mm | - | - | - |
| 1777617279 | 12.22° C | 51% | 1029.6 hPa | 0 mm | - | - | - |
* Rain latest hour (hover to see other rain measurements)
** Current wind speed in m/s (hover to see current wind gust speed)